Miscellaneous Hydrologic Data Report
Issued by NWS (Baltimore/Washington) Sterling, VA
1 of 51 available versions  First Miscellaneous Hydrologic Data Report Previous Miscellaneous Hydrologic Data Report  Print this page Close this Window


000
ASUS41 KLWX 232310
RWRLWX

REGIONAL WEATHER ROUNDUP
NATIONAL WEATHER SERVICE BALTIMORE MD/WASHINGTON DC
600 PM EST SUN NOV 23 2014

Note: "FAIR" indicates few or no clouds below 12,000 feet
with no significant weather and/or obstructions to visibility.
 TC=TEMPERATURE CELSIUS

 * =Non NWS site. Station does not report precipitation (e.g. rain,
    snow, etc.), thunder, or fog.

DCZ001-MDZ009-015-VAZ040>042-051-053>054-240000-
WASHINGTON METRO

CITY           SKY/WX    TMP DP  RH WIND       PRES   REMARKS
WASHINGTON NAT CLOUDY    55  39  54 CALM      30.07F
DULLES         MOCLDY    53  38  56 SE5       30.04F
ANDREWS AFB    CLOUDY    54  44  69 SE7       30.06F
FT BELVOIR     CLOUDY    51  38  60 SE5       30.05F
QUANTICO       LGT RAIN  51  44  77 CALM      30.06F
COLLEGE PARK*  CLOUDY    48  34  57 CALM      30.06F
LEESBURG*      MOCLDY    48  34  57 MISG      30.04F
GAITHERSBURG*  PTCLDY    50  28  43 E7        30.09S

$$

MDZ006>007-011-014-240000-
BALTIMORE METRO

CITY           SKY/WX    TMP DP  RH WIND       PRES   REMARKS
BWI AIRPORT    CLOUDY    46  36  68 E7        30.07F
MD SCIENCE CTR   N/A     48  31  51 MISG      30.09S
ANNAPOLIS      CLOUDY    47  43  86 SE7       30.08F
FORT MEADE*    CLOUDY    46  37  71 E3        30.10F

$$

MDZ012-015-019>023-240000-
MARYLAND EASTERN SHORE

CITY           SKY/WX    TMP DP  RH WIND       PRES   REMARKS
OCEAN CITY     CLOUDY    51  48  89 CALM      30.13F
SALISBURY      CLOUDY    53  47  79 SE6       30.12S
BAY BRIDGE AP*   N/A     50  43  76 SE6       30.09F
CAMBRIDGE*     CLOUDY    52  43  71 SE5       30.09F

$$

MDZ017>025-240000-
SOUTHERN MARYLAND

CITY           SKY/WX    TMP DP  RH WIND       PRES   REMARKS
PATUXENT RIVER CLOUDY    51  44  77 SE7       30.08F
ST INIGOES     LGT RAIN  52  43  71 E5        30.08F
LEONARDTOWN*   CLOUDY    52  43  71 E5        30.08F

$$

MDZ003>005-240000-
NORTH CENTRAL MARYLAND

CITY           SKY/WX    TMP DP  RH WIND       PRES   REMARKS
FREDERICK*     CLEAR     48  30  49 VRB5      30.07
HAGERSTOWN APT PTCLDY    50  31  48 SE6       30.01F
WESTMINSTER*   PTCLDY    48  27  43 SE12      30.05S

$$

MDZ501>502-240000-
WESTERN MARYLAND

CITY           SKY/WX    TMP DP  RH WIND       PRES   REMARKS
OAKLAND*       PTCLDY    48  36  61 SE18G28   29.88F
CUMBERLAND*    PTCLDY    55  34  44 SE6       29.97F

$$

VAZ025>031-240000-
SHENANDOAH VALLEY

CITY           SKY/WX    TMP DP  RH WIND       PRES   REMARKS
WINCHESTER*    MOCLDY    54  32  43 SE9       29.99F
FRONT ROYAL*   CLOUDY    55  41  58 S12G20    29.98F
LURAY*         CLOUDY    57  46  67 S7        29.98F
NEW MARKET*    CLOUDY    55  45  69 S5        29.98S
STAUNTON*      CLOUDY    54  45  72 S7        30.00F
WAYNESBORO*    CLOUDY    46  41  84 SE12      29.99F

$$

WVZ021-048>050-054>055-240000-
EASTERN WEST VIRGINIA PANHANDLE

CITY           SKY/WX    TMP DP  RH WIND       PRES   REMARKS
MARTINSBURG    PTCLDY    51  29  42 SE5       30.01F
PETERSBURG*    CLOUDY    56  38  51 S6        29.94F

$$

VAZ036>039-050-240000-
CENTRAL FOOTHILLS

CITY           SKY/WX    TMP DP  RH WIND       PRES   REMARKS
CHARLOTTESVILL LGT RAIN  51  42  71 SE7       30.03S
CULPEPER*      LGT RAIN  55  46  71 CALM      30.04S
ORANGE*        CLOUDY    54  45  71 SE3       30.05S
GORDONSVILLE*  CLOUDY    51  45  78 CALM      30.02F
WARRENTON*     CLOUDY    57  50  77 CALM      30.03F

$$

VAZ055>057-240000-
NORTH AND CENTRAL PIEDMONT

CITY           SKY/WX    TMP DP  RH WIND       PRES   REMARKS
FREDERICKSBRG* DRIZZLE   55  48  76 SE6       30.04F
STAFFORD*      DRIZZLE   55  45  70 CALM      30.08F

$$

NCZ024-NYZ072-PAZ021-071-VAZ022-071-240000-
OTHER REGIONAL OBSERVATIONS

CITY           SKY/WX    TMP DP  RH WIND       PRES   REMARKS
NEW YORK CITY  PTCLDY    51  29  42 CALM      30.15S
PHILADELPHIA   CLOUDY    51  30  44 CALM      30.12F
PITTSBURGH     CLOUDY    59  42  53 SE14      29.78F
ROANOKE        LGT RAIN  40  39  97 CALM      30.00F FOG
RICHMOND       LGT RAIN  53  45  74 E5        30.05F
RALEIGH        LGT RAIN  56  53  90 E10       29.96F FOG

$$

ANZ530>537-240000-
MARINE OBSERVATIONS

STATION/POSITION TIME  TEMP    WIND        PRES
                       AIR SEA DIR/SP/G
                 (UTC) (F)     (DEG/KT/KT) (MB)
THOMAS PT LIGHT  2300   50 47  150/ 11/ 12 1019.7F
BALT KEY BRIDGE  2300   47      80/  5/  5 1018.6S
COVE POINT       2300   49     180/  8/  9 1018.9S
LEWISETTA        2300   49 44   90/  5/  6 1018.3F
SOLOMONS ISLAND  2300      49                N/A
PINEY POINT      2300          130/ 10/ 11   N/A

$$

Close this window


The National Weather Service prepares its forecasts and other services in collaboration with agencies like the US Geological Survey, US Bureau of Reclamation, US Army Corps of Engineers, Natural Resource Conservation Service, National Park Service, ALERT Users Group, Bureau of Indian Affairs, and many state and local emergency managers across the country. For details, please click here.

National Weather Service
(Baltimore/Washington) Sterling Weather Forecast Office
43858 Weather Service Rd.
Sterling, VA 20166
(703) 996-2200
Page last modified: 23-Nov-2014 11:10 PM
Disclaimer
Credits
Glossary
Privacy Policy
About Us
Career Opportunities